Regional Weather Roundup
Issued by NWS

Home | Current Version | Previous Version | Text Only | Print | Product List | Glossary Off
Versions: 1 2 3 4 5 6 7 8 9 10 11 12 13 14 15 16 17 18 19 20 21 22 23 24 25 26 27

000
ASUS45 KBOU 241107
RWRCO

WEATHER ROUNDUP FOR COLORADO
NATIONAL WEATHER SERVICE DENVER/BOULDER CO
500 AM MDT SUN SEP 24 2017

NOTE: "FAIR" INDICATES FEW OR NO CLOUDS BELOW 12000 FEET WITH NO
SIGNIFICANT WEATHER AND/OR OBSTRUCTIONS TO VISIBILITY.

COZ001>005-013-030-031-241200-
...NORTHWEST COLORADO...

CITY           SKY/WX    TMP DP  RH WIND       PRES   REMARKS
CRAIG          CLOUDY    37  34  89 CALM      29.88F
HAYDEN         FAIR      36  35  96 SW3       29.90S
MEEKER         FAIR      34  32  92 CALM      29.87F
RABBIT EARS PA FAIR      32  32 100 SE8       30.01S WCI  25
STEAMBOAT SPGS FAIR      33  32  96 E5        29.89S WCI  28
WALDEN         CLOUDY    32  30  93 CALM      29.98S VSB 1/4
$$

COZ006>008-011-241200-
...WEST CENTRAL VALLEYS...

CITY           SKY/WX    TMP DP  RH WIND       PRES   REMARKS
GRAND JUNCTION FAIR      38  38 100 E5        29.81S
MONTROSE       FAIR      38  36  92 S5        29.88R
EAGLE          MOCLDY    34  33  96 CALM      29.95F
RIFLE          FAIR      40  38  93 CALM      29.84F
DELTA          NOT AVBL
NUCLA          FAIR      43  32  65 S6        29.92R
$$

COZ017>023-064>068-241200-
...SOUTHWEST COLORADO...

CITY           SKY/WX    TMP DP  RH WIND       PRES   REMARKS
DURANGO        FAIR      37  37 100 E9        29.94F FOG
CORTEZ         FAIR      37  35  92 E6        29.92R
PAGOSA SPRINGS FAIR      36  36 100 CALM      30.00S
TELLURIDE      FAIR      40  22  49 E6        29.96F
WOLF CREEK PAS FAIR      25  23  93 S15G21    30.15F WCI  12
$$

COZ009-010-012-014-032>034-037-058>063-241200-
...CENTRAL COLORADO...

CITY           SKY/WX    TMP DP  RH WIND       PRES   REMARKS
ASPEN          FAIR      34  32  92 S5        29.92S WCI  30
BUENA VISTA    CLOUDY    42  39  88 CALM      29.97F
COPPER MTN     FAIR      36  23  60 MISG      30.07F
BERTHOUD PASS  FLURRIES  27  18  69 S26G33    30.11F WCI  11
COTTONWOOD PAS   N/A     43  41  93 SE9       30.02F
GUNNISON       FAIR      30  29  96 W5        29.96S WCI  25
KREMMLING      CLOUDY    41  37  87 CALM      29.97S
LEADVILLE      CLOUDY    33  32  96 SE5       30.00F WCI  29
MONARCH PASS   FOG       30  28  93 S17       30.20S VSB 3/4 WCI  18
SALIDA         CLOUDY    46  42  85 CALM      30.03F
SUNLIGHT       FAIR      30  28  93 CALM      30.03F
WILKERSON PASS SNOW      34  32  93 S10G18    30.12S VSB 1/4 WCI  26
$$

COZ069>075-241200-
...SAN LUIS VALLEY/SANGRE DE CRISTO MOUNTAINS...

CITY           SKY/WX    TMP DP  RH WIND       PRES   REMARKS
ALAMOSA        CLOUDY    42  41  96 S3        29.98S
DEL NORTE      FAIR      34  33  95 W7        30.00S WCI  28
LA VETA PASS   LGT RAIN  36  36 100 S17G23    30.19F
SAGUACHE       CLOUDY    37  37 100 NW5       29.99S
$$

COZ035-036-038>040-241200-
...NORTHERN COLORADO FRONT RANGE...

CITY           SKY/WX    TMP DP  RH WIND       PRES   REMARKS
DENVER INTL AP CLOUDY    46  43  89 CALM      29.96F
DMNS CITY PARK   N/A     46  45  98 E3G12     29.97S
AURORA         CLOUDY    44  44 100 CALM      29.98S
FRONT RANGE AP CLOUDY    46  45  93 CALM      29.98F
ERIE MUNI ARPT MOCLDY    46  43  90 SE6       30.02R
BOULDER MUN AP CLOUDY    46  46 100 CALM      29.96S
CENTENNIAL     CLOUDY    45  44  97 E5        29.97F
BROOMFIELD     FAIR      43  43 100 CALM      29.97F
FORT COLLINS   CLOUDY    46  45  96 S3        29.97S
LONGMONT       CLOUDY    48  46  91 E3        29.99R
$$

COZ041-046-047-076>085-087-088-241200-
...PIKES PEAK/PALMER DIVIDE AND SOUTHERN FOOTHILLS...

CITY           SKY/WX    TMP DP  RH WIND       PRES   REMARKS
COLO. SPRINGS  CLOUDY    46  42  86 N6        29.99R
A. F. ACADEMY  CLOUDY    44  43  96 N7        29.98R
SCHRIEVER AFB  CLOUDY    44  42  93 MISG      29.97R
CHEYENNE MTN   CLOUDY    43  40  87 N8        29.93F
ELLICOTT       CLOUDY   N/A N/A N/A NE6       29.96R
FALCON         CLOUDY    42  41  96 N7        29.99S FOG
FORT CARSON    CLOUDY    47  43  85 N6        29.96S
LIMON            N/A    N/A N/A N/A MISG      29.96F
MONUMENT HILL  FOG       37  37 100 CALM      30.01S VSB 1
CANON CITY     CLOUDY    52  46  82 E6        29.95S
WALSENBURG     CLOUDY    48  46  93 N5        29.97F
TRINIDAD       CLOUDY    48  48 100 NW7       29.96S
$$

COZ042>045-048>051-090-091-241200-
...NORTHEAST COLORADO...

CITY           SKY/WX    TMP DP  RH WIND       PRES   REMARKS
GREELEY ARPT   CLOUDY    48  45  89 CALM      29.97S
AKRON          CLOUDY    45  43  93 N9        29.96F
BURLINGTON     CLOUDY    50  49  96 VRB5      29.92F
WRAY           DRIZZLE  N/A N/A N/A NW10      29.94F
YUMA           CLOUDY    45  43  93 NW9       29.94F
STERLING       CLOUDY    46  45  93 N3        29.97R
HOLYOKE        DRIZZLE   48  45  87 N10       29.92F
FORT MORGAN    CLOUDY    47  45  92 NW8       29.97F
$$

COZ086-089-092>099-241200-
...SOUTHEAST COLORADO...

CITY           SKY/WX    TMP DP  RH WIND       PRES   REMARKS
PUEBLO         CLOUDY    50  47  89 N3        29.95S
LA JUNTA       CLOUDY    52  50  93 N8        29.92R
LAMAR          LGT RAIN  54  52  93 E9        29.86F
SPRINGFIELD      N/A     55  55 100 S9        29.91R
$$




USA.gov is the U.S. government's official web portal to all federal, state and local government web resources and services.